• In Kazakhstan
  • List of Countries
  • For 7 days
  • Water Temperature
  • Weather Map
  • News
  • Weather Widgets
  • user-avatar
    Login

    Hourly Weather Serowe

    Today, 6 December, Friday

    Time Temperature Precipitation Wind Pressure Humidity
    00:00 +17°C° 0 mm 7 mps 668 mmHg 74%
    01:00 +16°C° 0 mm 7 mps 668 mmHg 76%
    02:00 +16°C° 0 mm 6 mps 668 mmHg 79%
    03:00 +16°C° 0 mm 6 mps 667 mmHg 80%
    04:00 +16°C° 0 mm 6 mps 667 mmHg 80%
    05:00 +16°C° 0 mm 6 mps 667 mmHg 81%
    06:00 +16°C° 0 mm 6 mps 667 mmHg 78%
    07:00 +17°C° 0 mm 6 mps 668 mmHg 76%
    08:00 +19°C° 0 mm 6 mps 668 mmHg 74%
    09:00 +21°C° 0 mm 5 mps 668 mmHg 65%
    10:00 +25°C° 0 mm 5 mps 668 mmHg 56%
    11:00 +28°C° 0 mm 5 mps 668 mmHg 47%
    12:00 +29°C° 0 mm 4 mps 668 mmHg 44%
    13:00 +30°C° 0 mm 4 mps 667 mmHg 40%
    14:00 +31°C° 0 mm 3 mps 666 mmHg 37%
    15:00 +30°C° 0 mm 3 mps 666 mmHg 41%
    16:00 +29°C° 0 mm 3 mps 665 mmHg 45%
    17:00 +28°C° 0 mm 2 mps 664 mmHg 50%
    18:00 +27°C° 0.2 mm 2 mps 664 mmHg 57%
    19:00 +25°C° 0.2 mm 2 mps 664 mmHg 64%
    20:00 +24°C° 0.2 mm 2 mps 664 mmHg 71%
    21:00 +24°C° 0.1 mm 2 mps 664 mmHg 70%
    22:00 +24°C° 0.1 mm 2 mps 664 mmHg 69%
    23:00 +24°C° 0.1 mm 2 mps 665 mmHg 69%

    Tomorrow, 7 December, Saturday

    Time Temperature Precipitation Wind Pressure Humidity
    00:00 +24°C° 0 mm 2 mps 665 mmHg 67%
    01:00 +24°C° 0 mm 3 mps 664 mmHg 64%
    02:00 +24°C° 0 mm 3 mps 664 mmHg 62%
    03:00 +24°C° 0 mm 3 mps 664 mmHg 63%
    04:00 +22°C° 0 mm 3 mps 664 mmHg 63%
    05:00 +21°C° 0 mm 3 mps 663 mmHg 64%
    06:00 +22°C° 0 mm 3 mps 664 mmHg 62%
    07:00 +24°C° 0 mm 3 mps 664 mmHg 60%
    08:00 +25°C° 0 mm 3 mps 665 mmHg 58%
    09:00 +26°C° 0 mm 3 mps 665 mmHg 54%
    10:00 +28°C° 0 mm 3 mps 665 mmHg 50%
    11:00 +29°C° 0 mm 2 mps 665 mmHg 46%
    12:00 +29°C° 0.3 mm 3 mps 664 mmHg 48%
    13:00 +29°C° 0.3 mm 3 mps 664 mmHg 51%
    14:00 +29°C° 0.3 mm 4 mps 663 mmHg 53%
    15:00 +27°C° 0.5 mm 5 mps 663 mmHg 60%
    16:00 +25°C° 0.5 mm 5 mps 662 mmHg 68%
    17:00 +23°C° 0.5 mm 6 mps 662 mmHg 75%
    18:00 +22°C° 0.8 mm 5 mps 662 mmHg 79%
    19:00 +21°C° 0.8 mm 4 mps 663 mmHg 84%
    20:00 +20°C° 0.8 mm 3 mps 663 mmHg 88%
    21:00 +20°C° 4.6 mm 4 mps 663 mmHg 89%
    22:00 +20°C° 4.6 mm 4 mps 664 mmHg 90%
    23:00 +20°C° 4.6 mm 4 mps 664 mmHg 92%

    Day after tomorrow, 8 December, Sunday

    Time Temperature Precipitation Wind Pressure Humidity
    00:00 +20°C° 0.1 mm 4 mps 663 mmHg 91%
    01:00 +20°C° 0.1 mm 4 mps 663 mmHg 91%
    02:00 +20°C° 0.1 mm 4 mps 663 mmHg 91%
    03:00 +20°C° 0 mm 4 mps 663 mmHg 90%
    04:00 +20°C° 0 mm 4 mps 663 mmHg 90%
    05:00 +20°C° 0 mm 4 mps 663 mmHg 90%
    06:00 +21°C° 0.1 mm 4 mps 663 mmHg 88%
    07:00 +21°C° 0.1 mm 5 mps 663 mmHg 86%
    08:00 +21°C° 0.1 mm 5 mps 664 mmHg 84%
    09:00 +22°C° 0 mm 5 mps 664 mmHg 79%
    10:00 +25°C° 0 mm 5 mps 664 mmHg 73%
    11:00 +26°C° 0 mm 5 mps 664 mmHg 68%
    12:00 +26°C° 0.1 mm 5 mps 663 mmHg 65%
    13:00 +27°C° 0.1 mm 4 mps 663 mmHg 61%
    14:00 +28°C° 0.1 mm 4 mps 662 mmHg 58%
    15:00 +29°C° 0 mm 3 mps 662 mmHg 53%
    16:00 +29°C° 0 mm 2 mps 662 mmHg 48%
    17:00 +30°C° 0 mm 1 mps 662 mmHg 44%
    18:00 +29°C° 0.4 mm 2 mps 662 mmHg 52%
    19:00 +27°C° 0.4 mm 2 mps 662 mmHg 60%
    20:00 +25°C° 0.4 mm 3 mps 662 mmHg 69%
    21:00 +24°C° 0.9 mm 3 mps 662 mmHg 76%
    22:00 +22°C° 0.9 mm 4 mps 662 mmHg 83%
    23:00 +21°C° 0.9 mm 4 mps 662 mmHg 90%

    9 December, Monday

    Time Temperature Precipitation Wind Pressure Humidity
    00:00 +21°C° 0 mm 4 mps 662 mmHg 90%
    01:00 +21°C° 0 mm 4 mps 662 mmHg 89%
    02:00 +21°C° 0 mm 4 mps 662 mmHg 89%
    03:00 +21°C° 0.4 mm 4 mps 662 mmHg 88%
    04:00 +21°C° 0.4 mm 4 mps 662 mmHg 88%
    05:00 +21°C° 0.4 mm 5 mps 662 mmHg 87%
    06:00 +21°C° 0.9 mm 5 mps 662 mmHg 86%
    07:00 +22°C° 0.9 mm 5 mps 663 mmHg 84%
    08:00 +22°C° 0.9 mm 5 mps 663 mmHg 83%
    09:00 +22°C° 0.2 mm 5 mps 663 mmHg 78%
    10:00 +23°C° 0.2 mm 5 mps 663 mmHg 73%
    11:00 +25°C° 0.2 mm 5 mps 663 mmHg 68%
    12:00 +25°C° 0.1 mm 5 mps 663 mmHg 67%
    13:00 +25°C° 0.1 mm 4 mps 663 mmHg 65%
    14:00 +26°C° 0.1 mm 4 mps 663 mmHg 63%
    15:00 +26°C° 0.3 mm 4 mps 663 mmHg 62%
    16:00 +26°C° 0.3 mm 4 mps 662 mmHg 62%
    17:00 +26°C° 0.3 mm 4 mps 662 mmHg 62%
    18:00 +25°C° 0.9 mm 3 mps 663 mmHg 68%
    19:00 +23°C° 0.9 mm 2 mps 663 mmHg 75%
    20:00 +22°C° 0.9 mm 1 mps 663 mmHg 81%
    21:00 +21°C° 0.2 mm 2 mps 663 mmHg 84%
    22:00 +20°C° 0.2 mm 2 mps 663 mmHg 87%
    23:00 +20°C° 0.2 mm 3 mps 663 mmHg 90%

    10 December, Tuesday

    Time Temperature Precipitation Wind Pressure Humidity
    00:00 +20°C° 0.3 mm 3 mps 663 mmHg 90%
    01:00 +20°C° 0.3 mm 3 mps 663 mmHg 90%
    02:00 +20°C° 0.3 mm 3 mps 662 mmHg 90%
    03:00 +20°C° 0 mm 3 mps 662 mmHg 90%
    04:00 +19°C° 0 mm 3 mps 662 mmHg 91%
    05:00 +19°C° 0 mm 2 mps 662 mmHg 92%
    06:00 +20°C° 0 mm 3 mps 663 mmHg 87%
    07:00 +21°C° 0 mm 3 mps 663 mmHg 83%
    08:00 +22°C° 0 mm 4 mps 664 mmHg 78%
    09:00 +25°C° 0 mm 3 mps 664 mmHg 69%
    10:00 +26°C° 0 mm 3 mps 664 mmHg 59%
    11:00 +28°C° 0 mm 2 mps 664 mmHg 49%
    12:00 +29°C° 0 mm 2 mps 664 mmHg 43%
    13:00 +30°C° 0 mm 2 mps 663 mmHg 37%
    14:00 +31°C° 0 mm 2 mps 663 mmHg 31%
    15:00 +31°C° 0 mm 2 mps 663 mmHg 34%
    16:00 +30°C° 0 mm 2 mps 662 mmHg 36%
    17:00 +29°C° 0 mm 2 mps 662 mmHg 39%
    18:00 +28°C° 0 mm 2 mps 662 mmHg 44%
    19:00 +26°C° 0 mm 2 mps 662 mmHg 49%
    20:00 +25°C° 0 mm 2 mps 663 mmHg 54%
    21:00 +24°C° 0 mm 2 mps 663 mmHg 60%
    22:00 +24°C° 0 mm 2 mps 663 mmHg 66%
    23:00 +23°C° 0 mm 2 mps 663 mmHg 71%

    11 December, Wednesday

    Time Temperature Precipitation Wind Pressure Humidity
    00:00 +21°C° 0 mm 2 mps 663 mmHg 75%
    01:00 +22°C° 0 mm 1 mps 662 mmHg 78%
    02:00 +21°C° 0 mm 1 mps 662 mmHg 81%
    03:00 +21°C° 0 mm 1 mps 662 mmHg 83%
    04:00 +21°C° 0 mm 1 mps 662 mmHg 85%
    05:00 +20°C° 0 mm 1 mps 662 mmHg 86%
    06:00 +22°C° 0 mm 1 mps 663 mmHg 77%
    07:00 +24°C° 0 mm 1 mps 663 mmHg 67%
    08:00 +26°C° 0 mm 1 mps 664 mmHg 57%
    09:00 +28°C° 0 mm 1 mps 665 mmHg 46%
    10:00 +31°C° 0 mm 1 mps 665 mmHg 36%
    11:00 +31°C° 0 mm 0 mps 666 mmHg 25%
    12:00 +33°C° 0 mm 1 mps 665 mmHg 25%
    13:00 +34°C° 0 mm 2 mps 664 mmHg 25%
    14:00 +33°C° 0 mm 3 mps 664 mmHg 25%
    15:00 +33°C° 0 mm 3 mps 663 mmHg 25%
    16:00 +33°C° 0 mm 3 mps 663 mmHg 26%
    17:00 +32°C° 0 mm 2 mps 663 mmHg 26%
    18:00 +31°C° 0 mm 2 mps 663 mmHg 29%
    19:00 +29°C° 0 mm 2 mps 663 mmHg 32%
    20:00 +28°C° 0 mm 2 mps 663 mmHg 35%
    21:00 +28°C° 0 mm 2 mps 663 mmHg 36%
    22:00 +27°C° 0 mm 2 mps 663 mmHg 37%
    23:00 +27°C° 0 mm 2 mps 664 mmHg 38%
    Show more